| time (UTC) | temp F | wind direction | speed knots | gust knots | rain 1hr in | rain 24hr in | rain mn in | humidity % | barometer mb |
| 20260831150108 | 54 | 0 | 0.0 | 0.9 | 0.00 | 0.00 | 0.00 | 85 | 1014.9 |
| 20260831144604 | 53 | 0 | 0.0 | 2.6 | 0.00 | 0.00 | 0.00 | 83 | 1014.7 |
| 20260831143109 | 53 | 0 | 0.0 | 0.0 | 0.00 | 0.00 | 0.00 | 83 | 1014.7 |
| 20260831141601 | 52 | 0 | 0.0 | 0.0 | 0.00 | 0.00 | 0.00 | 83 | 1014.7 |
| 20260831140059 | 52 | 0 | 0.0 | 0.0 | 0.00 | 0.00 | 0.00 | 83 | 1014.7 |
| 20260831134605 | 52 | 0 | 0.0 | 0.0 | 0.00 | 0.00 | 0.00 | 84 | 1014.7 |
| 20260831133106 | 52 | 0 | 0.0 | 0.0 | 0.00 | 0.00 | 0.00 | 84 | 1014.6 |
| 20260831131603 | 52 | 0 | 0.0 | 0.0 | 0.00 | 0.00 | 0.00 | 84 | 1014.7 |
| 20260831130109 | 52 | 0 | 0.0 | 0.0 | 0.00 | 0.00 | 0.00 | 85 | 1014.7 |
| 20260831124605 | 52 | 0 | 0.0 | 0.0 | 0.00 | 0.00 | 0.00 | 85 | 1014.9 |
| 20260831123102 | 53 | 0 | 0.0 | 0.0 | 0.00 | 0.00 | 0.00 | 85 | 1014.9 |
| 20260831121558 | 53 | 0 | 0.0 | 0.0 | 0.00 | 0.00 | 0.00 | 86 | 1015.1 |
| 20260831120110 | 53 | 0 | 0.0 | 0.0 | 0.00 | 0.00 | 0.00 | 86 | 1015.3 |
| 20260831114611 | 53 | 0 | 0.0 | 0.0 | 0.00 | 0.00 | 0.00 | 86 | 1015.4 |
| 20260831113101 | 53 | 0 | 0.0 | 0.0 | 0.00 | 0.00 | 0.00 | 86 | 1015.5 |
| 20260831111558 | 53 | 0 | 0.0 | 0.0 | 0.00 | 0.00 | 0.00 | 86 | 1015.6 |
| 20260831110059 | 54 | 0 | 0.0 | 0.0 | 0.00 | 0.00 | 0.00 | 86 | 1015.6 |
| 20260831104602 | 54 | 0 | 0.0 | 0.0 | 0.00 | 0.00 | 0.00 | 86 | 1015.7 |
| 20260831103102 | 54 | 0 | 0.0 | 0.0 | 0.00 | 0.00 | 0.00 | 86 | 1015.9 |
| 20260831101602 | 54 | 0 | 0.0 | 0.0 | 0.00 | 0.00 | 0.00 | 86 | 1015.9 |
| 20260831100338 | 54 | 0 | 0.0 | 0.0 | 0.00 | 0.00 | 0.00 | 86 | 1016.0 |
| 20260831094559 | 55 | 0 | 0.0 | 0.0 | 0.00 | 0.00 | 0.00 | 86 | 1016.3 |
| 20260831093124 | 55 | 0 | 0.0 | 0.0 | 0.00 | 0.00 | 0.00 | 86 | 1016.5 |
| 20260831091559 | 55 | 0 | 0.0 | 0.0 | 0.00 | 0.00 | 0.00 | 86 | 1016.6 |
| 20260831090134 | 55 | 0 | 0.0 | 0.0 | 0.00 | 0.00 | 0.00 | 85 | 1016.7 |
| 20260831084559 | 56 | 0 | 0.0 | 0.9 | 0.00 | 0.00 | 0.00 | 85 | 1016.7 |
| 20260831083107 | 56 | 0 | 0.0 | 0.0 | 0.00 | 0.00 | 0.00 | 84 | 1016.7 |
| 20260831081602 | 57 | 0 | 0.0 | 0.0 | 0.00 | 0.00 | 0.00 | 83 | 1016.8 |
| 20260831080128 | 57 | 0 | 0.0 | 0.0 | 0.00 | 0.00 | 0.00 | 83 | 1017.0 |
| 20260831074604 | 57 | 0 | 0.0 | 0.0 | 0.00 | 0.00 | 0.00 | 82 | 1017.1 |
| 20260831073102 | 57 | 0 | 0.0 | 0.0 | 0.00 | 0.00 | 0.00 | 82 | 1017.0 |
| 20260831071559 | 57 | 0 | 0.0 | 0.0 | 0.00 | 0.00 | 0.00 | 82 | 1017.2 |
| 20260831070100 | 57 | 0 | 0.0 | 0.0 | 0.00 | 0.00 | 0.00 | 82 | 1017.3 |
| 20260831064605 | 57 | 0 | 0.0 | 0.0 | 0.00 | 0.00 | 0.00 | 81 | 1017.5 |
| 20260831063114 | 58 | 0 | 0.0 | 0.0 | 0.00 | 0.00 | 0.00 | 80 | 1017.6 |
| 20260831061601 | 58 | 0 | 0.0 | 0.0 | 0.00 | 0.00 | 0.00 | 79 | 1017.7 |
| 20260831060106 | 58 | 0 | 0.0 | 0.0 | 0.00 | 0.00 | 0.00 | 79 | 1017.7 |
| 20260831054559 | 59 | 0 | 0.0 | 0.0 | 0.00 | 0.00 | 0.00 | 78 | 1017.8 |
| 20260831053133 | 59 | 0 | 0.0 | 0.0 | 0.00 | 0.00 | 0.00 | 77 | 1018.2 |
| 20260831051602 | 59 | 0 | 0.0 | 0.0 | 0.00 | 0.00 | 0.00 | 76 | 1018.3 |
| 20260831050110 | 60 | 15 | 0.0 | 0.0 | 0.00 | 0.00 | 0.00 | 75 | 1018.3 |
| 20260831044645 | 60 | 0 | 0.0 | 0.0 | 0.00 | 0.00 | 0.00 | 74 | 1018.4 |
| 20260831043105 | 61 | 0 | 0.0 | 0.0 | 0.00 | 0.00 | 0.00 | 72 | 1018.3 |
| 20260831041614 | 62 | 0 | 0.0 | 0.0 | 0.00 | 0.00 | 0.00 | 71 | 1018.3 |
| 20260831040104 | 63 | 0 | 0.0 | 0.0 | 0.00 | 0.00 | 0.00 | 69 | 1018.3 |
| 20260831034602 | 64 | 0 | 0.0 | 0.9 | 0.00 | 0.00 | 0.00 | 67 | 1018.3 |
| 20260831033109 | 65 | 0 | 0.0 | 3.5 | 0.00 | 0.00 | 0.00 | 64 | 1018.1 |
| 20260831031604 | 65 | 0 | 0.0 | 0.9 | 0.00 | 0.00 | 0.00 | 63 | 1018.1 |
| 20260831024559 | 67 | 20 | 0.0 | 1.7 | 0.00 | 0.00 | 0.00 | 61 | 1017.9 |
| 20260831023107 | 68 | 0 | 0.0 | 0.9 | 0.00 | 0.00 | 0.00 | 58 | 1018.0 |
| 20260831021604 | 69 | 0 | 0.0 | 0.9 | 0.00 | 0.00 | 0.00 | 56 | 1018.2 |
| 20260831020106 | 70 | 147 | 0.0 | 0.0 | 0.00 | 0.00 | 0.00 | 55 | 1018.3 |
| 20260831014601 | 72 | 0 | 0.0 | 0.9 | 0.00 | 0.00 | 0.00 | 52 | 1018.4 |
| 20260831013100 | 71 | 0 | 0.0 | 3.5 | 0.00 | 0.00 | 0.00 | 51 | 1018.4 |
| 20260831011558 | 74 | 29 | 0.0 | 2.6 | 0.00 | 0.00 | 0.00 | 45 | 1018.5 |
| 20260831010119 | 79 | 150 | 0.0 | 1.7 | 0.00 | 0.00 | 0.00 | 41 | 1018.6 |
| 20260831004600 | 79 | 0 | 0.0 | 2.6 | 0.00 | 0.00 | 0.00 | 40 | 1018.8 |
| 20260831003109 | 78 | 0 | 0.0 | 1.7 | 0.00 | 0.00 | 0.00 | 41 | 1018.9 |
| 20260831001559 | 75 | 147 | 0.0 | 3.5 | 0.00 | 0.00 | 0.00 | 43 | 1018.9 |
| 20260831000109 | 75 | 0 | 0.0 | 3.5 | 0.00 | 0.00 | 0.00 | 47 | 1019.1 |
| 20260830234622 | 75 | 177 | 0.9 | 4.3 | 0.00 | 0.00 | 0.00 | 45 | 1019.2 |
| 20260830233101 | 77 | 165 | 0.0 | 3.5 | 0.00 | 0.00 | 0.00 | 42 | 1019.3 |
| 20260830231604 | 78 | 183 | 0.9 | 3.5 | 0.00 | 0.00 | 0.00 | 42 | 1019.3 |
| 20260830230104 | 77 | 149 | 0.0 | 1.7 | 0.00 | 0.00 | 0.00 | 42 | 1019.3 |
| 20260830224602 | 75 | 83 | 1.7 | 2.6 | 0.00 | 0.00 | 0.00 | 44 | 1019.6 |
| 20260830223104 | 76 | 164 | 0.9 | 2.6 | 0.00 | 0.00 | 0.00 | 43 | 1019.8 |
| 20260830221608 | 75 | 200 | 0.9 | 3.5 | 0.00 | 0.00 | 0.00 | 45 | 1019.8 |
| 20260830220113 | 75 | 0 | 0.9 | 4.3 | 0.00 | 0.00 | 0.00 | 45 | 1019.7 |
| 20260830214603 | 74 | 143 | 0.9 | 3.5 | 0.00 | 0.00 | 0.00 | 45 | 1019.8 |
| 20260830213113 | 73 | 209 | 0.9 | 3.5 | 0.00 | 0.00 | 0.00 | 49 | 1020.0 |
| 20260830211606 | 73 | 0 | 0.9 | 3.5 | 0.00 | 0.00 | 0.00 | 48 | 1020.2 |
| 20260830210105 | 73 | 169 | 0.9 | 4.3 | 0.00 | 0.00 | 0.00 | 49 | 1020.2 |
| 20260830204601 | 72 | 143 | 0.9 | 5.2 | 0.00 | 0.01 | 0.00 | 51 | 1020.3 |
| 20260830203102 | 71 | 150 | 0.0 | 2.6 | 0.00 | 0.01 | 0.00 | 53 | 1020.3 |
| 20260830201605 | 69 | 158 | 0.9 | 4.3 | 0.00 | 0.01 | 0.00 | 55 | 1020.7 |
| 20260830200058 | 68 | 184 | 0.0 | 4.3 | 0.00 | 0.01 | 0.00 | 57 | 1020.8 |
| 20260830194606 | 67 | 159 | 0.9 | 2.6 | 0.00 | 0.01 | 0.00 | 59 | 1020.9 |
| 20260830193101 | 66 | 171 | 0.9 | 2.6 | 0.00 | 0.01 | 0.00 | 61 | 1020.9 |
| 20260830191557 | 65 | 159 | 0.9 | 3.5 | 0.00 | 0.01 | 0.00 | 63 | 1020.8 |
| 20260830190100 | 64 | 172 | 0.0 | 2.6 | 0.00 | 0.01 | 0.00 | 66 | 1021.0 |
| 20260830184601 | 64 | 150 | 0.9 | 3.5 | 0.00 | 0.01 | 0.00 | 67 | 1021.1 |
| 20260830183102 | 63 | 158 | 0.0 | 2.6 | 0.00 | 0.01 | 0.00 | 68 | 1021.2 |
| 20260830181605 | 62 | 101 | 0.9 | 3.5 | 0.00 | 0.01 | 0.00 | 69 | 1021.1 |
| 20260830180108 | 62 | 150 | 0.0 | 2.6 | 0.00 | 0.01 | 0.00 | 71 | 1021.3 |
| 20260830174615 | 61 | 0 | 0.0 | 1.7 | 0.00 | 0.01 | 0.00 | 71 | 1021.2 |
| 20260830173101 | 61 | 152 | 0.0 | 2.6 | 0.00 | 0.01 | 0.00 | 72 | 1021.3 |
| 20260830171602 | 61 | 341 | 0.0 | 2.6 | 0.00 | 0.01 | 0.00 | 72 | 1021.3 |
| 20260830170110 | 61 | 0 | 0.9 | 3.5 | 0.00 | 0.01 | 0.00 | 71 | 1021.1 |
| 20260830164605 | 60 | 0 | 0.0 | 2.6 | 0.00 | 0.05 | 0.00 | 72 | 1021.0 |
| 20260830163106 | 59 | 0 | 0.0 | 3.5 | 0.00 | 0.05 | 0.00 | 74 | 1021.0 |
| 20260830161622 | 59 | 0 | 0.0 | 1.7 | 0.00 | 0.05 | 0.00 | 75 | 1021.0 |
| 20260830160104 | 60 | 0 | 0.0 | 0.9 | 0.00 | 0.05 | 0.00 | 76 | 1021.1 |
| 20260830154604 | 59 | 0 | 0.0 | 1.7 | 0.00 | 0.06 | 0.00 | 76 | 1021.1 |
| 20260830153111 | 59 | 0 | 0.0 | 0.9 | 0.00 | 0.06 | 0.00 | 78 | 1021.0 |
| 20260830151610 | 58 | 0 | 0.0 | 1.7 | 0.00 | 0.06 | 0.00 | 78 | 1021.0 |